www.pogodaiklimat.ru
ПОГОДА в Бюзеноле
Время
(UTC), дата
08 20.05
07 20.05
09 20.05
10 20.05
11 20.05
12 20.05
14 20.05
13 20.05
15 20.05
16 20.05
17 20.05
18 20.05
20 20.05
19 20.05
21 20.05
22 20.05
23 20.05
00 21.05
02 21.05
01 21.05
03 21.05
04 21.05
05 21.05
06 21.05
08 21.05
07 21.05
09 21.05
10 21.05
11 21.05
12 21.05
14 21.05
13 21.05
15 21.05
16 21.05
17 21.05
18 21.05
20 21.05
19 21.05
21 21.05
22 21.05
23 21.05
00 22.05
02 22.05
01 22.05
03 22.05
04 22.05
05 22.05
06 22.05
08 22.05
07 22.05
09 22.05
10 22.05
11 22.05
12 22.05
14 22.05
13 22.05
15 22.05
16 22.05
17 22.05
18 22.05
20 22.05
19 22.05
21 22.05
22 22.05
23 22.05
00 23.05
02 23.05
01 23.05
03 23.05
04 23.05
05 23.05
06 23.05
08 23.05
07 23.05
09 23.05
10 23.05
11 23.05
12 23.05
14 23.05
13 23.05
15 23.05
16 23.05
17 23.05
18 23.05
20 23.05
19 23.05
21 23.05
22 23.05
23 23.05
00 24.05
02 24.05
01 24.05
03 24.05
04 24.05
05 24.05
06 24.05
08 24.05
07 24.05
09 24.05
10 24.05
11 24.05
12 24.05
14 24.05
13 24.05
15 24.05
16 24.05
17 24.05
18 24.05
20 24.05
19 24.05
21 24.05
22 24.05
23 24.05
00 25.05
02 25.05
01 25.05
03 25.05
04 25.05
05 25.05
06 25.05
08 25.05
07 25.05
09 25.05
10 25.05
11 25.05
12 25.05
14 25.05
13 25.05
15 25.05
16 25.05
17 25.05
18 25.05
20 25.05
19 25.05
21 25.05
22 25.05
23 25.05
00 26.05
02 26.05
01 26.05
03 26.05
04 26.05
05 26.05
06 26.05
08 26.05
07 26.05
09 26.05
10 26.05
11 26.05
12 26.05
14 26.05
13 26.05
15 26.05
16 26.05
17 26.05
18 26.05
20 26.05
19 26.05
21 26.05
22 26.05
23 26.05
00 27.05
02 27.05
01 27.05
03 27.05
04 27.05
05 27.05
06 27.05
07 27.05
Ветер
(напр.,м/с)
Видим. Явления Облачность Т
(С)
Тd
(С)
f
(%)
Тe
(С)
Тes
(С)
Комфортность P
(гПа)
Po
(гПа)
Тmin
(С)
Tmax
(С)
R
(мм)
R24
(мм)
S
(см)
В 4 н/о н/о +18.3 +11.5 65 +18 +18 1022.0 984.0 141
В 2 н/о н/о +16.6 +11.5 72 +17 +17 1022.2 984.0 92
В 3
{6}
н/о н/о +19.8 +12.1 61 +22 +22 комфорт 1021.6 983.9 186
СВ 3 н/о н/о +20.5 +12.1 59 +23 +23 комфорт 1021.3 983.7 217
В 3 н/о н/о +21.6 +12.3 55 +24 +24 комфорт 1020.9 983.4 247
С 3
{7}
н/о н/о +22.2 +12.2 53 +25 +25 комфорт 1020.5 983.1 255
В 4 н/о н/о +23.4 +11.7 48 +26 +26 жарко 1019.6 982.4 238
СВ 4 н/о н/о +23.3 +12.4 50 +26 +26 жарко 1020.0 982.7 260
СВ 4
{8}
н/о н/о +23.8 +11.8 47 +25 +25 комфорт 1019.1 982.0 204
СВ 3 н/о н/о +23.8 +12.1 48 +26 +26 жарко 1018.9 981.8 179
СВ 3 н/о н/о +22.9 +11.4 48 +25 +25 комфорт 1019.1 981.8 116
СВ 4
{8}
н/о н/о +22.2 +11.8 52 +25 +25 комфорт 1019.2 981.9 +23.9 67
СВ 3 н/о н/о +18.0 +11.6 66 +18 +18 1020.7 982.7 1
СВ 3 н/о н/о +20.1 +11.5 58 +22 +22 комфорт 1020.0 982.4 26
В 3
{6}
н/о н/о +16.6 +11.1 70 +16 +16 1021.3 983.2
В 3 н/о н/о +16.0 +10.4 69 +16 +16 1021.8 983.6
В 3 н/о н/о +15.1 +10.3 73 +14 +14 1021.9 983.6
В 3
{6}
н/о н/о +14.4 +10.1 75 +14 +14 1021.9 983.4 229
В 2 н/о н/о +12.7 +9.7 82 +12 +12 1021.8 983.1
В 3 н/о н/о +13.7 +10.0 78 +13 +13 1021.9 983.3
СВ 2
{6}
н/о н/о +10.9 +9.1 89 +10 +10 1021.9 983.0
СВ 1 н/о н/о +10.8 +9.1 89 +10 +10 1022.1 983.1
СВ 1 н/о н/о +11.5 +9.9 90 +11 +11 1022.3 983.4 11
ЮВ 1
{6}
н/о н/о +14.2 +11.1 82 +15 +15 1021.8 983.3 +10.1 46
ЮЗ 1 н/о н/о +18.3 +12.5 69 +20 +20 1021.6 983.7 138
Ю 2 н/о н/о +16.7 +11.7 72 +17 +17 1021.7 983.6 91
З 2
{3}
н/о н/о +20.1 +13.1 64 +23 +23 комфорт 1021.2 983.6 185
ЮЗ 3 н/о н/о +21.7 +13.8 61 +25 +25 комфорт 1021.3 983.8 222
ЮЗ 2 н/о н/о +22.6 +13.9 58 +26 +26 жарко 1021.0 983.7 232
З 1
{6}
н/о н/о +23.7 +13.4 52 +26 +26 жарко 1020.4 983.2 255
З 4 н/о н/о +24.4 +12.7 48 +26 +26 жарко 1019.8 982.7 232
ЮЗ 3 н/о н/о +23.8 +12.8 50 +26 +26 жарко 1020.1 983.0 243
З 3
{7}
н/о н/о +24.7 +13.2 49 +27 +27 жарко 1019.5 982.5 173
СЗ 2 н/о н/о +25.5 +13.1 46 +27 +27 жарко 1019.2 982.2 164
З 2 н/о н/о +24.8 +13.2 48 +27 +27 жарко 1019.2 982.1 118
СЗ 2
{7}
н/о н/о +24.3 +13.9 52 +27 +27 жарко 1019.4 982.2 +25.5 72
СЗ 1 н/о н/о +16.7 +13.0 79 +18 +18 1020.8 982.7 1
З 2 н/о н/о +20.9 +12.8 60 +24 +24 комфорт 1019.8 982.2 26
СВ 2
{3}
н/о н/о +14.7 +12.4 86 +14 +14 1021.2 982.8
СВ 2 н/о н/о +13.9 +12.3 90 +13 +13 1021.4 983.0
СВ 2 н/о н/о +13.0 +11.7 92 +12 +12 1021.3 982.7
СВ 2
{3}
н/о н/о +12.1 +11.0 93 +11 +11 1021.5 982.7 221
С 2 н/о н/о +10.6 +9.8 95 +9 +9 1021.0 982.1
СВ 3 н/о н/о +11.5 +10.6 94 +10 +10 1021.0 982.2
СВ 2
{3}
н/о н/о +10.1 +9.3 95 +8 +8 1021.1 982.0
СВ 1 н/о н/о +9.8 +9.0 95 +9 +9 1020.9 981.8
СВ 1 н/о н/о +10.5 +9.9 96 +10 +10 1020.8 981.9 9
штиль 0
{3}
н/о н/о +13.1 +12.5 96 +13 +13 1020.6 982.1 +9.7 27
ЮЗ 2 н/о н/о +18.5 +14.4 77 +20 +20 1019.9 982.1 74
ЮЗ 1 н/о н/о +16.7 +14.6 87 +18 +18 1020.0 982.0 58
ЮЗ 3
{4}
н/о н/о +19.9 +15.3 75 +22 +22 комфорт 1019.5 981.9 70
З 3 н/о н/о +20.2 +15.0 72 +23 +23 комфорт 1019.5 982.0 69
З 5 н/о н/о +21.8 +15.1 66 +25 +25 комфорт 1019.6 982.2 125
З 5
{8}
н/о н/о +23.5 +15.6 61 +27 +27 душно 1018.9 981.8 211
З 5 н/о н/о +23.2 +15.0 60 +27 +27 душно 1018.9 981.8 136
З 6 н/о н/о +23.9 +15.1 58 +27 +27 жарко 1018.6 981.5 187
З 5
{10}
н/о н/о +23.1 +12.9 53 +26 +26 жарко 1019.1 981.9 179
З 5 н/о н/о +22.7 +13.7 57 +26 +26 жарко 1019.1 981.8 110
СЗ 2 н/о н/о +22.1 +13.2 57 +25 +25 комфорт 1019.1 981.8 64
С 2
{10}
н/о н/о +20.3 +14.1 68 +23 +23 комфорт 1019.4 981.9 +24.2 17
СВ 4 н/о н/о +16.2 +13.6 85 +15 +15 1021.7 983.6 1
СВ 4 н/о н/о +17.9 +14.6 81 +18 +18 1020.6 982.7 9
С 2
{9}
н/о н/о +15.9 +12.8 82 +16 +16 1022.3 984.0
С 2 н/о н/о +14.9 +12.7 87 +15 +15 1022.7 984.3
С 3 н/о н/о +14.1 +12.0 87 +13 +13 1022.7 984.2
СЗ 1
{9}
н/о н/о +13.1 +8.8 75 +13 +13 1023.2 984.5 135
штиль 0 н/о н/о +12.2 +9.4 83 +12 +12 1023.2 984.4
З 2 н/о н/о +12.7 +9.3 80 +12 +12 1023.5 984.8
штиль 0
{2}
н/о н/о +11.4 +10.0 91 +11 +11 1023.5 984.6
С 1 н/о н/о +11.2 +10.1 93 +11 +11 1023.7 984.8
З 1 н/о н/о +11.3 +9.5 89 +11 +11 1024.1 985.1
СЗ 1
{2}
н/о н/о +10.9 +8.9 87 +11 +11 1024.4 985.4 +10.9 0.5 3
СВ 2 н/о н/о +9.3 +7.9 91 +8 +8 1026.8 987.5 18
СВ 3 н/о н/о +9.5 +7.5 87 +7 +7 1025.5 986.2 8
СЗ 1
{7}
н/о н/о +9.1 +7.5 90 +8 +8 1027.4 988.0 25
З 2 н/о н/о +9.2 +7.9 92 +7 +7 1027.3 987.9 30
З 2 н/о н/о +9.9 +8.2 89 +8 +8 1026.9 987.6 72
З 3
{7}
н/о н/о +11.2 +9.0 86 +9 +9 1027.1 988.0 108
З 4 н/о н/о +13.4 +9.2 76 +12 +12 1026.9 988.1 140
СЗ 4 н/о н/о +12.3 +8.9 80 +10 +10 1027.1 988.2 118
З 5
{9}
н/о н/о +13.7 +9.1 74 +12 +12 1026.9 988.1 131
СЗ 2 н/о н/о +11.0 +9.1 88 +10 +10 1027.9 988.8 44
СЗ 2 н/о н/о +13.0 +9.6 80 +12 +12 1027.9 989.1 119
С 1
{13}
н/о н/о +12.3 +9.1 81 +12 +12 1028.5 989.5 +14.1 55
З 2 н/о н/о +9.0 +8.1 94 +7 +7 1029.8 990.3 2
СВ 2 н/о н/о +9.4 +7.9 90 +8 +8 1029.8 990.3 5
В 1
{10}
н/о н/о +7.8 +7.0 95 +7 +7 1030.4 990.6
З 1 н/о н/о +7.2 +6.6 96 +6 +6 1030.8 991.0
С 1 н/о н/о +7.0 +5.7 91 +6 +6 1030.9 991.0
СВ 2
{10}
н/о н/о +5.3 +4.8 97 +3 +3 1031.3 991.2 88
СЗ 1 н/о н/о +3.7 +3.2 97 +2 +2 1031.3 990.9
СВ 1 н/о н/о +4.3 +3.8 97 +3 +3 1031.1 990.9
штиль 0
{2}
н/о н/о +3.2 +2.8 97 +2 +2 1031.7 991.2
З 3 н/о н/о +5.6 +5.1 97 +2 +2 1031.4 991.3
З 3 н/о н/о +6.4 +5.6 95 +3 +3 1031.8 991.8 15
З 3
{5}
н/о н/о +8.1 +7.0 93 +5 +5 1032.1 992.4 +3.2 57
СЗ 3 н/о н/о +9.3 +7.3 87 +7 +7 1032.7 993.1 89
СЗ 4 н/о н/о +8.3 +7.0 92 +5 +5 1032.6 992.9 53
СЗ 3
{8}
н/о н/о +10.7 +7.8 82 +9 +9 1032.2 992.9 140
С 3 н/о н/о +11.7 +7.6 76 +10 +10 1032.3 993.0 160
СЗ 4 н/о н/о +13.3 +7.9 70 +12 +12 1032.2 993.1 216
СЗ 4
{8}
н/о н/о +13.6 +7.9 68 +12 +12 1031.9 993.0 182
СЗ 4 н/о н/о +15.0 +8.5 65 +14 +14 1031.9 993.1 144
СЗ 4 н/о н/о +15.1 +8.9 66 +14 +14 1031.9 993.1 147
СЗ 4
{9}
н/о н/о +15.0 +8.4 65 +14 +14 1031.9 993.1 108
СЗ 3 н/о н/о +15.2 +8.7 65 +15 +15 1031.9 993.2 88
С 3 н/о н/о +14.7 +8.7 67 +14 +14 1032.1 993.3 57
С 2
{9}
н/о н/о +14.4 +9.1 70 +14 +14 1032.3 993.4 +15.3 27
С 1 н/о н/о +12.7 +10.0 84 +13 +13 1033.0 993.9
СЗ 1 н/о н/о +13.9 +9.8 76 +14 +14 1032.5 993.5 10
С 1
{3}
н/о н/о +10.3 +8.8 90 +10 +10 1033.3 993.9
СВ 2 н/о н/о +8.9 +8.0 94 +7 +7 1034.0 994.3
СВ 2 н/о н/о +7.7 +7.0 95 +5 +5 1034.3 994.5
С 1
{3}
н/о н/о +7.3 +6.7 96 +6 +6 1034.3 994.3 150
СВ 2 н/о н/о +6.1 +5.6 97 +3 +3 1034.6 994.4
СВ 1 н/о н/о +6.6 +6.0 96 +5 +5 1034.5 994.4
СВ 2
{3}
н/о н/о +5.5 +5.0 97 +3 +3 1034.8 994.6
С 2 н/о н/о +5.1 +4.7 97 +2 +2 1035.1 994.8
СВ 1 н/о н/о +6.1 +5.6 97 +5 +5 1034.9 994.8 13
СВ 2
{3}
н/о н/о +9.7 +9.3 97 +8 +8 1034.8 995.2 +5.1 51
СВ 4 н/о н/о +15.1 +10.1 72 +14 +14 1034.2 995.4 146
СВ 3 н/о н/о +12.5 +10.6 88 +11 +11 1034.3 995.2 96
СВ 4
{8}
н/о н/о +15.3 +9.7 69 +14 +14 1034.1 995.3 143
В 4 н/о н/о +16.0 +9.7 66 +15 +15 1033.8 995.2 130
СВ 4 н/о н/о +16.8 +8.7 59 +16 +16 1033.8 995.3 135
СВ 3
{8}
н/о н/о +18.3 +8.8 54 +19 +19 1033.5 995.1 244
В 3 н/о н/о +17.8 +8.8 56 +18 +18 1033.2 994.7 117
СВ 3 н/о н/о +17.9 +8.7 55 +18 +18 1033.4 994.9 152
СВ 4
{7}
н/о н/о +18.0 +8.7 55 +18 +18 1032.8 994.4 108
В 2 н/о н/о +18.0 +9.6 58 +19 +19 1032.8 994.4 83
В 3 н/о н/о +18.3 +9.5 56 +19 +19 1032.6 994.2 104
В 2
{7}
н/о н/о +17.9 +9.4 58 +18 +18 1032.7 994.3 +18.7 70
СВ 2 н/о н/о +12.0 +9.4 84 +11 +11 1034.1 994.8 1
СВ 2 н/о н/о +15.9 +9.1 64 +16 +16 1033.1 994.3 29
СВ 3
{5}
н/о н/о +10.1 +8.8 92 +8 +8 1034.9 995.3
СВ 3 н/о н/о +9.2 +8.2 93 +7 +7 1035.0 995.3
СВ 3 н/о н/о +8.6 +7.6 93 +6 +6 1035.2 995.4
СВ 3
{5}
н/о н/о +7.7 +7.0 95 +5 +5 1035.5 995.5 162
СВ 3 н/о н/о +6.7 +6.1 96 +3 +3 1035.5 995.4
СВ 3 н/о н/о +7.0 +6.4 96 +4 +4 1035.5 995.5
СВ 3
{4}
н/о н/о +6.1 +5.6 97 +3 +3 1035.5 995.3
СВ 3 н/о н/о +6.2 +5.7 97 +3 +3 1035.6 995.4
С 2 н/о н/о +7.1 +6.7 97 +5 +5 1035.9 995.9 14
СВ 2
{4}
н/о н/о +10.6 +9.9 95 +9 +9 1035.4 996.0 +5.9 55
В 3 н/о н/о +15.6 +9.4 67 +15 +15 1035.1 996.2 145
В 2 н/о н/о +13.6 +9.6 77 +13 +13 1035.1 996.0 100
СВ 4
{8}
н/о н/о +16.7 +8.8 60 +16 +16 1034.7 996.1 183
В 3 н/о н/о +18.7 +9.3 54 +19 +19 1034.1 995.8 222
В 4 н/о н/о +19.3 +8.6 50 +20 +20 1033.8 995.5 252
ЮВ 3
{10}
н/о н/о +20.2 +8.6 47 +22 +22 комфорт 1033.4 995.2 252
СВ 5 н/о н/о +21.2 +6.7 39 +22 +22 комфорт 1032.6 994.6 234
В 4 н/о н/о +21.0 +7.3 41 +22 +22 комфорт 1032.9 994.8 262
СВ 4
{9}
н/о н/о +21.7 +6.5 37 +22 +22 комфорт 1032.3 994.3 208
В 5 н/о н/о +21.3 +4.3 33 +22 +22 комфорт 1032.2 994.2 172
В 4 н/о н/о +21.1 +4.9 35 +22 +22 комфорт 1032.2 994.1 125
СВ 4
{9}
н/о н/о +20.3 +4.3 35 +21 +21 комфорт 1032.4 994.2 +21.7 77
СВ 2 н/о н/о +13.0 +6.7 66 +12 +12 1034.0 994.8 1
СВ 3 н/о н/о +18.2 +4.5 40 +18 +18 1033.0 994.5 34
СВ 3
{7}
н/о н/о +11.4 +6.8 73 +10 +10 1034.7 995.4
СВ 2 н/о н/о +9.9 +6.6 80 +8 +8 1034.9 995.3
С 2 н/о н/о +8.5 +6.0 84 +7 +7 1035.4 995.5
СВ 2
{7}
н/о н/о +7.5 +5.6 88 +5 +5 1035.4 995.4 234
СВ 3 н/о н/о +6.1 +5.0 93 +3 +3 1035.2 995.1
СВ 3 н/о н/о +6.6 +5.3 91 +3 +3 1035.2 995.2
СВ 2
{4}
н/о н/о +5.6 +4.7 94 +3 +3 1035.2 994.9
С 3 н/о н/о +5.1 +4.3 95 +1 +1 1035.5 995.2
С 3 н/о н/о +6.8 +6.1 95 +4 +4 1035.3 995.3 18
СВ 1
{4}
н/о н/о +10.5 +9.2 92 +10 +10 1035.0 995.5 +5.1 53
ЮВ 1 н/о н/о +15.0 +9.0 67 +16 +16 1034.3 995.4 99
Местоположение метеостанции Бюзеноль (Бельгия): широта 49.62 долгота 5.58 высота над уровнем моря 322 м.
В архиве по умолчанию представлена погода в Бюзеноле за последнюю неделю. Архивные данные за месяц целиком и за предыдущие месяцы, начиная с января 2011 года, Вы можете получить, выбрав интересующий диапазон дат из раскрывающегося списка и нажав кнопку "Найти!".
*Определитесь, кто Вы:
Внимание! Время в таблицах - всемирное. Для получения местного времени необходимо прибавить поправку, которая равна 1 ч.
Смотрите также архив погоды в соседних городах и на ближайших метеорологических станциях:
Партнеры нашего сайта:      
Пояснения к столбцам:
  • Ветер - указаны скорость ветра в м/с - средняя за 10 мин, порывы в срок и между сроками (в фигурных скобках) и направление, откуда дует ветер: С - северный,
  • СВ - северо-восточный, В - восточный, ЮВ - юго-восточный, Ю - южный, ЮЗ - юго-западный, З - западный, СЗ - северо-западный.
  • Видимость - горизонтальная дальность видимости в метрах или километрах. При видимости от 1 до 10 км при отсутствии осадков обычно наблюдается дымка, при ухудшении видимости до 1 км и менее - туман. В сухую погоду видимость может ухудшаться дымом, пылью или мглою.
  • Явления - указаны атмосферные явления, наблюдавшиеся в срок или в последний час перед сроком; фигурными скобками обозначены явления, наблюдавшиеся между сроками (за 1-3 часа до срока); квадратными скобками обозначены град или гололедные отложения с указанием их диаметра в мм.
  • Облачность - указаны через наклонную черту общая и нижняя облачность в баллах и высота нижней границы облаков в метрах; квадратными скобками обозначены формы облаков: Ci - перистые, Cs - перисто-слоистые, Cc - перисто-кучевые, Ac - высококучевые, As - высокослоистые, Sc - слоисто-кучевые, Ns - слоисто-дождевые, Cu - кучевые, Cb - кучево-дождевые. Подробнее классификацию облаков см. в Атласе облаков (PDF).
  • T - Температура воздуха - температура, измеренная на высоте 2 м над землей.
  • Td - Температура точки росы - температура, при понижении до которой содержащийся в воздухе водяной пар достигнет насыщения.
  • f - Относительная влажность воздуха - влажноcть воздуха, измеренная на высоте 2 м над землей.
  • Te - Эффективная температура - температура, которую ощущает одетый по сезону человек в тени. Характеристика душности погоды. При расчете учитывается влияние влажности воздуха и скорости ветра на теплоощущения человека.
  • Tes - Эффективная температура на солнце - температура, которую ощущает человек, с поправкой на солнечный нагрев. Характеристика знойности погоды. Зависит от высоты солнца над горизонтом, облачности и скорости ветра. Ночью, в пасмурную погоду, а также при ветре 12 м/с и более поправка равна нулю.
  • P - Атмосферное давление - приведенное к уровню моря атмосферное давление.
  • Po - Атмосферное давление - измеренное на уровне метеостанции атмосферное давление.
  • Tmin - Минимальная температура - минимум температуры воздуха на высоте 2 м над землей.
  • Tmax - Максимальная температура - максимум температуры воздуха на высоте 2 м над землей.
  • R - Количество осадков - Количество выпавших осадков за период времени, мм. При наведении курсора мыши на число - период времени, за который выпало указанное количество осадков.
  • R24 - Количество осадков - Количество выпавших осадков за 24 часа, мм.
  • S - Снежный покров - Высота снежного покрова, см. При наведении курсора мыши на число - состояние снежного покрова и степень покрытия местности в баллах.